Time,TemperatureF,DewpointF,PressureIn,WindDirection,WindDirectionDegrees,WindSpeedMPH,WindSpeedGustMPH,Humidity,HourlyPrecipIn,Conditions,Clouds,dailyrainin,SoftwareType,DateUTC
2013-03-05 00:02:00,29.0,20.0,29.73,North,-999,0.0,-999.0,70,-99.99,,,-99.99,,2013-03-05 05:02:00,
2013-03-05 00:12:00,29.0,20.0,29.73,North,-999,0.0,-999.0,70,-99.99,,,-99.99,,2013-03-05 05:12:00,
2013-03-05 00:22:00,29.0,20.0,29.73,North,-999,0.0,-999.0,70,-99.99,,,-99.99,,2013-03-05 05:22:00,
2013-03-05 00:32:00,29.0,20.0,29.73,North,-999,0.0,-999.0,70,-99.99,,,-99.99,,2013-03-05 05:32:00,
2013-03-05 00:42:00,29.0,20.0,29.73,North,-999,0.0,-999.0,70,-99.99,,,-99.99,,2013-03-05 05:42:00,
2013-03-05 00:52:00,29.0,20.0,29.76,North,-999,0.0,-999.0,69,-99.99,,,-99.99,,2013-03-05 05:52:00,
2013-03-05 01:01:00,28.0,20.0,29.75,North,-999,0.0,-999.0,70,-99.99,,,-99.99,,2013-03-05 06:01:00,
2013-03-05 01:11:00,28.0,20.0,29.75,North,-999,0.0,-999.0,70,-99.99,,,-99.99,,2013-03-05 06:11:00,
2013-03-05 01:22:00,29.0,20.0,29.76,North,-999,0.0,-999.0,69,-99.99,,,-99.99,,2013-03-05 06:22:00,
2013-03-05 01:32:00,28.0,19.0,29.76,North,-999,0.0,-999.0,68,-99.99,,,-99.99,,2013-03-05 06:32:00,
2013-03-05 01:42:00,28.0,19.0,29.76,North,-999,0.0,-999.0,68,-99.99,,,-99.99,,2013-03-05 06:42:00,
2013-03-05 01:52:00,28.0,19.0,29.77,North,-999,0.0,-999.0,68,-99.99,,,-99.99,,2013-03-05 06:52:00,
2013-03-05 02:01:00,28.0,19.0,29.77,North,-999,0.0,-999.0,69,-99.99,,,-99.99,,2013-03-05 07:01:00,
2013-03-05 02:11:00,28.0,19.0,29.77,North,-999,0.0,-999.0,69,-99.99,,,-99.99,,2013-03-05 07:11:00,
2013-03-05 02:22:00,28.0,19.0,29.78,North,-999,0.0,-999.0,68,-99.99,,,-99.99,,2013-03-05 07:22:00,
2013-03-05 02:31:00,28.0,19.0,29.77,North,-999,0.0,-999.0,68,-99.99,,,-99.99,,2013-03-05 07:31:00,
2013-03-05 02:42:00,28.0,19.0,29.77,North,-999,0.0,-999.0,68,-99.99,,,-99.99,,2013-03-05 07:42:00,
2013-03-05 02:52:00,27.0,18.0,29.78,North,-999,0.0,-999.0,69,-99.99,,,-99.99,,2013-03-05 07:52:00,
2013-03-05 03:02:00,27.0,18.0,29.78,North,-999,0.0,-999.0,68,-99.99,,,-99.99,,2013-03-05 08:02:00,
2013-03-05 03:11:00,27.0,18.0,29.78,North,-999,0.0,-999.0,68,-99.99,,,-99.99,,2013-03-05 08:11:00,
2013-03-05 03:21:00,27.0,18.0,29.78,North,-999,0.0,-999.0,69,-99.99,,,-99.99,,2013-03-05 08:21:00,
2013-03-05 03:31:00,27.0,18.0,29.80,North,-999,0.0,-999.0,69,-99.99,,,-99.99,,2013-03-05 08:31:00,
2013-03-05 03:41:00,27.0,18.0,29.80,North,-999,0.0,-999.0,69,-99.99,,,-99.99,,2013-03-05 08:41:00,
2013-03-05 03:52:00,27.0,18.0,29.80,North,-999,0.0,-999.0,69,-99.99,,,-99.99,,2013-03-05 08:52:00,
2013-03-05 04:01:00,27.0,18.0,29.79,North,-999,0.0,-999.0,69,-99.99,,,-99.99,,2013-03-05 09:01:00,
2013-03-05 04:11:00,27.0,18.0,29.79,North,-999,0.0,-999.0,69,-99.99,,,-99.99,,2013-03-05 09:11:00,
2013-03-05 04:21:00,27.0,19.0,29.81,North,-999,0.0,-999.0,70,-99.99,,,-99.99,,2013-03-05 09:21:00,
2013-03-05 04:32:00,27.0,19.0,29.82,North,-999,0.0,-999.0,71,-99.99,,,-99.99,,2013-03-05 09:32:00,
2013-03-05 04:42:00,27.0,19.0,29.82,North,-999,0.0,-999.0,71,-99.99,,,-99.99,,2013-03-05 09:42:00,
2013-03-05 04:52:00,27.0,19.0,29.82,North,-999,0.0,-999.0,70,-99.99,,,-99.99,,2013-03-05 09:52:00,
2013-03-05 05:01:00,27.0,19.0,29.83,North,-999,0.0,-999.0,71,-99.99,,,-99.99,,2013-03-05 10:01:00,
2013-03-05 05:11:00,27.0,19.0,29.83,North,-999,0.0,-999.0,71,-99.99,,,-99.99,,2013-03-05 10:11:00,
2013-03-05 05:21:00,27.0,19.0,29.83,North,-999,0.0,-999.0,71,-99.99,,,-99.99,,2013-03-05 10:21:00,
2013-03-05 05:32:00,27.0,19.0,29.84,North,-999,0.0,-999.0,71,-99.99,,,-99.99,,2013-03-05 10:32:00,
2013-03-05 05:42:00,27.0,19.0,29.84,North,-999,0.0,-999.0,71,-99.99,,,-99.99,,2013-03-05 10:42:00,
2013-03-05 05:52:00,27.0,19.0,29.86,North,-999,0.0,-999.0,71,-99.99,,,-99.99,,2013-03-05 10:52:00,
2013-03-05 06:01:00,27.0,19.0,29.84,North,-999,0.0,-999.0,72,-99.99,,,-99.99,,2013-03-05 11:01:00,
2013-03-05 06:11:00,27.0,19.0,29.84,North,-999,0.0,-999.0,72,-99.99,,,-99.99,,2013-03-05 11:11:00,
2013-03-05 06:22:00,27.0,19.0,29.85,North,-999,0.0,-999.0,72,-99.99,,,-99.99,,2013-03-05 11:22:00,
2013-03-05 06:32:00,27.0,19.0,29.85,North,-999,0.0,-999.0,72,-99.99,,,-99.99,,2013-03-05 11:32:00,
2013-03-05 06:42:00,27.0,19.0,29.85,North,-999,0.0,-999.0,72,-99.99,,,-99.99,,2013-03-05 11:42:00,
2013-03-05 06:52:00,28.0,20.0,29.86,North,-999,0.0,-999.0,71,-99.99,,,-99.99,,2013-03-05 11:52:00,
2013-03-05 07:02:00,28.0,20.0,29.87,North,-999,0.0,-999.0,70,-99.99,,,-99.99,,2013-03-05 12:02:00,
2013-03-05 07:12:00,28.0,20.0,29.87,North,-999,0.0,-999.0,70,-99.99,,,-99.99,,2013-03-05 12:12:00,
2013-03-05 07:22:00,28.0,20.0,29.88,North,-999,0.0,-999.0,71,-99.99,,,-99.99,,2013-03-05 12:22:00,
2013-03-05 07:32:00,28.0,20.0,29.90,North,-999,0.0,-999.0,71,-99.99,,,-99.99,,2013-03-05 12:32:00,
2013-03-05 07:42:00,28.0,20.0,29.90,North,-999,0.0,-999.0,71,-99.99,,,-99.99,,2013-03-05 12:42:00,
2013-03-05 07:53:00,29.0,20.0,29.90,North,-999,0.0,-999.0,70,-99.99,,,-99.99,,2013-03-05 12:53:00,
2013-03-05 08:02:00,29.0,20.0,29.89,North,-999,0.0,-999.0,70,-99.99,,,-99.99,,2013-03-05 13:02:00,
2013-03-05 08:12:00,29.0,20.0,29.89,North,-999,0.0,-999.0,70,-99.99,,,-99.99,,2013-03-05 13:12:00,
2013-03-05 08:22:00,30.0,21.0,29.91,North,-999,0.0,-999.0,69,-99.99,,,-99.99,,2013-03-05 13:22:00,
2013-03-05 08:32:00,30.0,21.0,29.90,North,-999,0.0,-999.0,69,-99.99,,,-99.99,,2013-03-05 13:32:00,
2013-03-05 08:42:00,30.0,21.0,29.90,North,-999,0.0,-999.0,69,-99.99,,,-99.99,,2013-03-05 13:42:00,
2013-03-05 08:52:00,31.0,22.0,29.91,North,-999,0.0,-999.0,68,-99.99,,,-99.99,,2013-03-05 13:52:00,
2013-03-05 09:02:00,31.0,22.0,29.91,North,-999,0.0,-999.0,68,-99.99,,,-99.99,,2013-03-05 14:02:00,
2013-03-05 09:11:00,31.0,22.0,29.91,North,-999,0.0,-999.0,68,-99.99,,,-99.99,,2013-03-05 14:11:00,
2013-03-05 09:22:00,32.0,22.0,29.92,North,-999,0.0,-999.0,66,-99.99,,,-99.99,,2013-03-05 14:22:00,
2013-03-05 09:32:00,32.0,22.0,29.91,North,-999,0.0,-999.0,65,-99.99,,,-99.99,,2013-03-05 14:32:00,
2013-03-05 09:42:00,32.0,22.0,29.91,North,-999,0.0,-999.0,65,-99.99,,,-99.99,,2013-03-05 14:42:00,
2013-03-05 09:52:00,33.0,23.0,29.93,North,-999,0.0,-999.0,65,-99.99,,,-99.99,,2013-03-05 14:52:00,
2013-03-05 10:02:00,33.0,23.0,29.92,North,-999,0.0,-999.0,65,-99.99,,,-99.99,,2013-03-05 15:02:00,
2013-03-05 10:11:00,33.0,23.0,29.92,North,-999,0.0,-999.0,65,-99.99,,,-99.99,,2013-03-05 15:11:00,
2013-03-05 10:21:00,34.0,23.0,29.92,North,-999,0.0,-999.0,65,-99.99,,,-99.99,,2013-03-05 15:21:00,
2013-03-05 10:32:00,34.0,23.0,29.93,North,-999,0.0,-999.0,64,-99.99,,,-99.99,,2013-03-05 15:32:00,
2013-03-05 10:42:00,34.0,23.0,29.93,North,-999,0.0,-999.0,64,-99.99,,,-99.99,,2013-03-05 15:42:00,
2013-03-05 10:52:00,35.0,23.0,29.93,North,-999,0.0,-999.0,62,-99.99,,,-99.99,,2013-03-05 15:52:00,
2013-03-05 11:01:00,35.0,24.0,29.93,North,-999,0.0,-999.0,64,-99.99,,,-99.99,,2013-03-05 16:01:00,
2013-03-05 11:11:00,35.0,24.0,29.93,North,-999,0.0,-999.0,64,-99.99,,,-99.99,,2013-03-05 16:11:00,
2013-03-05 11:22:00,37.0,24.0,29.93,North,-999,0.0,-999.0,60,-99.99,,,-99.99,,2013-03-05 16:22:00,
2013-03-05 11:32:00,37.0,24.0,29.92,North,-999,0.0,-999.0,60,-99.99,,,-99.99,,2013-03-05 16:32:00,
2013-03-05 11:42:00,37.0,24.0,29.92,North,-999,0.0,-999.0,60,-99.99,,,-99.99,,2013-03-05 16:42:00,
2013-03-05 11:52:00,38.0,25.0,29.92,North,-999,0.0,-999.0,59,-99.99,,,-99.99,,2013-03-05 16:52:00,
2013-03-05 12:01:00,38.0,25.0,29.92,North,-999,0.0,-999.0,59,-99.99,,,-99.99,,2013-03-05 17:01:00,
2013-03-05 12:11:00,38.0,25.0,29.92,North,-999,0.0,-999.0,59,-99.99,,,-99.99,,2013-03-05 17:11:00,
2013-03-05 12:21:00,40.0,26.0,29.92,North,-999,0.0,-999.0,57,-99.99,,,-99.99,,2013-03-05 17:21:00,
2013-03-05 12:32:00,41.0,27.0,29.92,North,-999,0.0,-999.0,56,-99.99,,,-99.99,,2013-03-05 17:32:00,
2013-03-05 12:42:00,41.0,27.0,29.92,North,-999,0.0,-999.0,56,-99.99,,,-99.99,,2013-03-05 17:42:00,
2013-03-05 12:53:00,43.0,28.0,29.92,North,-999,0.0,-999.0,55,-99.99,,,-99.99,,2013-03-05 17:53:00,
2013-03-05 13:02:00,42.0,27.0,29.91,North,-999,0.0,-999.0,55,-99.99,,,-99.99,,2013-03-05 18:02:00,
2013-03-05 13:11:00,42.0,27.0,29.91,North,-999,0.0,-999.0,55,-99.99,,,-99.99,,2013-03-05 18:11:00,
2013-03-05 13:22:00,44.0,28.0,29.91,North,-999,0.0,-999.0,52,-99.99,,,-99.99,,2013-03-05 18:22:00,
2013-03-05 13:32:00,43.0,28.0,29.92,North,-999,0.0,-999.0,54,-99.99,,,-99.99,,2013-03-05 18:32:00,
2013-03-05 13:42:00,43.0,28.0,29.92,North,-999,0.0,-999.0,54,-99.99,,,-99.99,,2013-03-05 18:42:00,
2013-03-05 13:53:00,43.0,27.0,29.93,North,-999,0.0,-999.0,53,-99.99,,,-99.99,,2013-03-05 18:53:00,
2013-03-05 14:01:00,44.0,28.0,29.93,North,-999,0.0,-999.0,53,-99.99,,,-99.99,,2013-03-05 19:01:00,
2013-03-05 14:11:00,44.0,28.0,29.93,North,-999,0.0,-999.0,53,-99.99,,,-99.99,,2013-03-05 19:11:00,
2013-03-05 14:21:00,45.0,28.0,29.92,North,-999,0.0,-999.0,51,-99.99,,,-99.99,,2013-03-05 19:21:00,
2013-03-05 14:32:00,44.0,28.0,29.93,North,-999,0.0,-999.0,52,-99.99,,,-99.99,,2013-03-05 19:32:00,
2013-03-05 14:42:00,44.0,28.0,29.93,North,-999,0.0,-999.0,52,-99.99,,,-99.99,,2013-03-05 19:42:00,
2013-03-05 14:52:00,45.0,28.0,29.93,North,-999,0.0,-999.0,52,-99.99,,,-99.99,,2013-03-05 19:52:00,
2013-03-05 15:01:00,45.0,27.0,29.94,North,-999,0.0,-999.0,50,-99.99,,,-99.99,,2013-03-05 20:01:00,
2013-03-05 15:11:00,43.0,27.0,29.95,North,-999,0.0,-999.0,53,-99.99,,,-99.99,,2013-03-05 20:11:00,
2013-03-05 15:22:00,43.0,27.0,29.95,North,-999,0.0,-999.0,53,-99.99,,,-99.99,,2013-03-05 20:22:00,
2013-03-05 15:32:00,43.0,27.0,29.94,North,-999,0.0,-999.0,53,-99.99,,,-99.99,,2013-03-05 20:32:00,
2013-03-05 15:42:00,43.0,27.0,29.94,North,-999,0.0,-999.0,53,-99.99,,,-99.99,,2013-03-05 20:42:00,
2013-03-05 15:52:00,42.0,27.0,29.95,North,-999,-999.0,-999.0,54,0.00,,,0.00,,2013-03-05 20:52:00,
2013-03-05 16:02:00,42.0,27.0,29.96,North,-999,-999.0,-999.0,55,0.00,,,0.00,,2013-03-05 21:02:00,
2013-03-05 16:11:00,42.0,27.0,29.96,North,-999,-999.0,-999.0,55,0.00,,,0.00,,2013-03-05 21:11:00,
2013-03-05 16:22:00,42.0,27.0,29.96,North,-999,-999.0,-999.0,55,0.00,,,0.00,,2013-03-05 21:22:00,
2013-03-05 16:32:00,42.0,27.0,29.97,North,-999,-999.0,-999.0,56,0.00,,,0.00,,2013-03-05 21:32:00,
2013-03-05 16:42:00,42.0,27.0,29.97,North,-999,-999.0,-999.0,56,0.00,,,0.00,,2013-03-05 21:42:00,
2013-03-05 16:52:00,41.0,27.0,29.96,North,-999,-999.0,-999.0,56,0.00,,,0.00,,2013-03-05 21:52:00,
2013-03-05 17:01:00,41.0,27.0,29.97,North,-999,-999.0,-999.0,57,0.00,,,0.00,,2013-03-05 22:01:00,
2013-03-05 17:11:00,41.0,27.0,29.97,North,-999,-999.0,-999.0,57,0.00,,,0.00,,2013-03-05 22:11:00,
2013-03-05 17:22:00,41.0,28.0,29.98,North,-999,-999.0,-999.0,59,0.00,,,0.00,,2013-03-05 22:22:00,
2013-03-05 17:32:00,40.0,27.0,29.98,North,-999,-999.0,-999.0,60,0.00,,,0.00,,2013-03-05 22:32:00,
2013-03-05 17:42:00,40.0,27.0,29.98,North,-999,-999.0,-999.0,60,0.00,,,0.00,,2013-03-05 22:42:00,
2013-03-05 17:52:00,40.0,27.0,29.98,North,-999,-999.0,-999.0,59,0.00,,,0.00,,2013-03-05 22:52:00,
2013-03-05 18:01:00,40.0,26.0,29.98,North,-999,-999.0,-999.0,58,0.00,,,0.00,,2013-03-05 23:01:00,
2013-03-05 18:11:00,40.0,26.0,29.98,North,-999,-999.0,-999.0,58,0.00,,,0.00,,2013-03-05 23:11:00,
2013-03-05 18:21:00,39.0,26.0,29.98,North,-999,-999.0,-999.0,59,0.00,,,0.00,,2013-03-05 23:21:00,
2013-03-05 18:32:00,39.0,26.0,29.98,North,-999,-999.0,-999.0,60,0.00,,,0.00,,2013-03-05 23:32:00,
2013-03-05 18:42:00,39.0,26.0,29.98,North,-999,-999.0,-999.0,60,0.00,,,0.00,,2013-03-05 23:42:00,
2013-03-05 18:53:00,38.0,26.0,29.99,North,-999,-999.0,-999.0,62,0.00,,,0.00,,2013-03-05 23:53:00,
2013-03-05 19:01:00,37.0,26.0,29.99,North,-999,-999.0,-999.0,63,0.00,,,0.00,,2013-03-06 00:01:00,
2013-03-05 19:11:00,37.0,26.0,29.99,North,-999,-999.0,-999.0,63,0.00,,,0.00,,2013-03-06 00:11:00,
2013-03-05 19:21:00,38.0,27.0,30.00,North,-999,-999.0,-999.0,63,0.00,,,0.00,,2013-03-06 00:21:00,
2013-03-05 19:32:00,37.0,26.0,30.01,North,-999,-999.0,-999.0,65,0.00,,,0.00,,2013-03-06 00:32:00,
2013-03-05 19:42:00,37.0,26.0,30.01,North,-999,-999.0,-999.0,65,0.00,,,0.00,,2013-03-06 00:42:00,
2013-03-05 19:52:00,36.0,26.0,30.00,North,-999,-999.0,-999.0,67,0.00,,,0.00,,2013-03-06 00:52:00,
2013-03-05 20:02:00,36.0,27.0,30.00,North,-999,-999.0,-999.0,69,0.00,,,0.00,,2013-03-06 01:02:00,
2013-03-05 20:11:00,36.0,27.0,30.00,North,-999,-999.0,-999.0,69,0.00,,,0.00,,2013-03-06 01:11:00,
2013-03-05 20:21:00,35.0,27.0,30.01,North,-999,-999.0,-999.0,71,0.00,,,0.00,,2013-03-06 01:21:00,
2013-03-05 20:32:00,35.0,27.0,30.01,North,-999,-999.0,-999.0,73,0.00,,,0.00,,2013-03-06 01:32:00,
2013-03-05 20:42:00,35.0,27.0,30.01,North,-999,-999.0,-999.0,73,0.00,,,0.00,,2013-03-06 01:42:00,
2013-03-05 20:52:00,34.0,27.0,30.01,North,-999,-999.0,-999.0,75,0.00,,,0.00,,2013-03-06 01:52:00,
2013-03-05 21:01:00,34.0,28.0,30.02,North,-999,-999.0,-999.0,78,0.00,,,0.00,,2013-03-06 02:01:00,
2013-03-05 21:11:00,34.0,28.0,30.02,North,-999,-999.0,-999.0,78,0.00,,,0.00,,2013-03-06 02:11:00,
2013-03-05 21:22:00,34.0,28.0,30.01,North,-999,0.0,-999.0,80,-99.99,,,-99.99,,2013-03-06 02:22:00,
2013-03-05 21:32:00,33.0,28.0,30.01,North,-999,0.0,-999.0,81,-99.99,,,-99.99,,2013-03-06 02:32:00,
2013-03-05 21:42:00,33.0,28.0,30.01,North,-999,0.0,-999.0,81,-99.99,,,-99.99,,2013-03-06 02:42:00,
2013-03-05 21:52:00,33.0,28.0,30.01,North,-999,0.0,-999.0,83,-99.99,,,-99.99,,2013-03-06 02:52:00,
2013-03-05 22:02:00,33.0,29.0,30.01,North,-999,0.0,-999.0,84,-99.99,,,-99.99,,2013-03-06 03:02:00,
2013-03-05 22:11:00,33.0,29.0,30.01,North,-999,0.0,-999.0,84,-99.99,,,-99.99,,2013-03-06 03:11:00,
2013-03-05 22:22:00,33.0,29.0,30.01,North,-999,0.0,-999.0,84,-99.99,,,-99.99,,2013-03-06 03:22:00,
2013-03-05 22:32:00,33.0,29.0,30.02,North,-999,0.0,-999.0,85,-99.99,,,-99.99,,2013-03-06 03:32:00,
2013-03-05 22:42:00,33.0,29.0,30.02,North,-999,0.0,-999.0,85,-99.99,,,-99.99,,2013-03-06 03:42:00,
2013-03-05 22:53:00,33.0,29.0,30.04,North,-999,0.0,-999.0,84,-99.99,,,-99.99,,2013-03-06 03:53:00,
2013-03-05 23:02:00,33.0,29.0,30.03,North,-999,0.0,-999.0,84,-99.99,,,-99.99,,2013-03-06 04:02:00,
2013-03-05 23:11:00,33.0,29.0,30.03,North,-999,0.0,-999.0,84,-99.99,,,-99.99,,2013-03-06 04:11:00,
2013-03-05 23:22:00,34.0,30.0,30.03,North,-999,0.0,-999.0,84,-99.99,,,-99.99,,2013-03-06 04:22:00,
2013-03-05 23:32:00,34.0,29.0,30.02,North,-999,0.0,-999.0,83,-99.99,,,-99.99,,2013-03-06 04:32:00,
2013-03-05 23:42:00,34.0,29.0,30.02,North,-999,0.0,-999.0,83,-99.99,,,-99.99,,2013-03-06 04:42:00,
2013-03-05 23:52:00,33.0,29.0,30.01,North,-999,0.0,-999.0,84,-99.99,,,-99.99,,2013-03-06 04:52:00,